[[{"header":{"parameterUnit":"m.s-1","parameterCategory":1,"la1":30.2991,"la2":30.254,"lo1":-89.0895,"lo2":-89.0444,"dy":0.0017,"dx":0.0017,"nx":28,"ny":28,"refTime":"2025-04-11T21:00:00:Z","depth":0,"parameterNumber":2,"parameterNumberName":"U-component_of_WINDS"},"data":[0,0,0,0,0,0,0,0,0,0,0,0,0,0,0,0,0,0,0,0,0,0,0,0,0,0,0,0,0,0,0,0,0,0,0,0,0,0,0,0,0,0,0,0,0,0,0,0,0,0,0,0,0,0,0,0,0,0,0.8511,0.8511,0,0.8569,0.857,0.857,0.8592,0.8592,0.8592,0.8591,0.8654,0.8655,0.8657,0,0,0,0,0,0,0,0,0,0,0,0,0,0.8421,0.8423,0.8511,0.8512,0.8512,0.8569,0.857,0.8571,0.8592,0.8592,0.8592,0.8591,0.8653,0.8655,0.8657,0,0,0,0,0,0,0,0,0,0,0,0,0,0.8468,0.8423,0.8511,0.853,0.8532,0.8569,0.857,0.8571,0.8592,0.8592,0.8591,0.8591,0.8652,0.8655,0.8658,0.8681,0,0,0.8666,0.8667,0,0,0,0,0,0,0,0,0.8465,0.8471,0.8526,0.8528,0.8531,0.8573,0.8561,0.8608,0.8592,0.8569,0.8591,0.8591,0.8627,0.8632,0.8644,0.8684,0.8686,0.8666,0.8668,0.8669,0.867,0,0,0,0,0,0,0,0.8462,0.8469,0.8534,0.8527,0.853,0.8536,0.8543,0.857,0.8599,0.8571,0.8573,0.8579,0.8629,0.8641,0.8645,0.8687,0.8666,0.8669,0.8671,0.8672,0.8751,0.8751,0,0,0,0,0,0,0.8455,0.8466,0.8532,0.8536,0.8497,0.8538,0.8545,0.856,0.8599,0.8605,0.858,0.858,0.8636,0.8642,0.8648,0.8678,0.8669,0.8672,0.8674,0.875,0.8751,0.8751,0,0,0,0,0,0,0.8453,0.8461,0.853,0.8501,0.8511,0.854,0.8556,0.8561,0.8574,0.8605,0.8611,0.8587,0.8636,0.8644,0.8673,0.868,0.8673,0.8676,0.875,0.875,0.8751,0.8738,0,0,0,0,0,0,0.8451,0.846,0.8468,0.8501,0.8512,0.8553,0.8557,0.8563,0.8578,0.8579,0.8614,0.8619,0.8637,0.8668,0.8675,0.8684,0.8678,0.8749,0.875,0.8751,0.8738,0.8738,0.8738,0,0,0,0,0,0.8447,0.8463,0.8468,0.8476,0.8523,0.8553,0.8559,0.8579,0.8578,0.8588,0.8608,0.8618,0.8678,0.8671,0.8679,0.8689,0.8749,0.875,0.8751,0.8738,0.8738,0.8738,0,0,0,0,0,0,0.843,0.8467,0.8474,0.85,0.8523,0.8556,0.8568,0.8578,0.8602,0.8603,0.8627,0.8634,0.8661,0.8678,0.8669,0.8714,0.8714,0.8717,0.8702,0.8702,0.8703,0.8698,0.868,0,0,0,0,0,0.8429,0.845,0.8481,0.8502,0.8513,0.8539,0.8552,0.8565,0.8591,0.8601,0.8623,0.8648,0.8673,0.8689,0.8713,0.8741,0.8749,0.8751,0.8752,0.8752,0.8754,0.8771,0.8772,0.8755,0.8755,0.8755,0,0,0.8428,0.8451,0.8462,0.8499,0.8518,0.854,0.8547,0.8569,0.8586,0.8604,0.8633,0.865,0.868,0.8708,0.8722,0.8723,0.8761,0.8753,0.8753,0.8755,0.8772,0.8773,0.8775,0.8755,0.8755,0.8755,0,0,0.8437,0.8455,0.8475,0.8494,0.8523,0.854,0.8545,0.8577,0.8589,0.8618,0.8632,0.8653,0.8695,0.8716,0.8732,0.8749,0.876,0.8757,0.8758,0.8774,0.8776,0.8777,0.8784,0.8786,0.8759,0.8759,0.8759,0,0.8431,0.8464,0.8484,0.8505,0.8522,0.8539,0.8559,0.8577,0.8613,0.8624,0.8625,0.8678,0.8699,0.8733,0.8738,0.875,0.8757,0.8753,0.8774,0.8775,0.8777,0.8784,0.8786,0.8758,0.8758,0.8758,0.8758,0,0.8456,0.8479,0.8491,0.8524,0.8542,0.8563,0.8587,0.8603,0.8615,0.8633,0.8663,0.8688,0.8719,0.8728,0.874,0.8764,0.8764,0.8769,0.877,0.8778,0.8785,0.8787,0.8758,0.8758,0.8758,0.8758,0,0,0.8455,0.85,0.8504,0.852,0.8553,0.8572,0.8594,0.8623,0.8637,0.8661,0.8682,0.8717,0.8722,0.874,0.8755,0.8769,0.8782,0.8772,0.8774,0.8774,0.8812,0.8808,0.881,0.8789,0.879,0.879,0.8809,0,0.8468,0.8508,0.8527,0.8559,0.8581,0.8598,0.8618,0.8642,0.8659,0.8681,0.8701,0.8725,0.873,0.8741,0.8756,0.8777,0.879,0.8776,0.8809,0.881,0.8801,0.8814,0.881,0.8826,0.8812,0.8812,0.8813,0,0.8489,0.8513,0.8547,0.8579,0.8589,0.8606,0.8635,0.8655,0.8683,0.8694,0.8715,0.8729,0.8755,0.8754,0.8791,0.8781,0.8796,0.8808,0.881,0.8813,0.8812,0.8818,0.8832,0.8834,0.8817,0.8817,0.8817,0,0.8485,0.8526,0.8552,0.8565,0.8602,0.8614,0.8631,0.8658,0.8675,0.8701,0.8712,0.874,0.8756,0.8778,0.88,0.8798,0.8835,0.8836,0.8846,0.8846,0.8853,0.8852,0.8869,0.8863,0.8862,0.8862,0.8862,0,0.8498,0.8518,0.855,0.8566,0.859,0.8612,0.8635,0.8654,0.8678,0.8698,0.8716,0.8735,0.8763,0.8786,0.8804,0.8832,0.8839,0.885,0.8854,0.8848,0.8847,0.8858,0.8858,0.8863,0.8863,0.8863,0.8863,0,0.8498,0.852,0.8549,0.8583,0.8592,0.8608,0.8637,0.8654,0.8672,0.8698,0.8706,0.8735,0.8763,0.8788,0.8825,0.8837,0.8866,0.8871,0.8856,0.8859,0.8868,0.8867,0.8893,0.8898,0.8887,0.8887,0.8887,0,0.8504,0.852,0.8556,0.857,0.8586,0.861,0.8627,0.865,0.8667,0.87,0.8713,0.8743,0.8767,0.8812,0.8837,0.8866,0.8873,0.888,0.8877,0.8871,0.8873,0.8872,0.8874,0.888,0.888,0.888,0.888,0,0.8514,0.8525,0.8548,0.8575,0.8595,0.8618,0.8642,0.8653,0.8681,0.87,0.8728,0.8747,0.8785,0.8815,0.8847,0.8865,0.8877,0.888,0.8884,0.8878,0.8869,0.8875,0.8857,0.888,0.888,0.888,0.888,0.888,0.8518,0.8533,0.856,0.8586,0.8606,0.8628,0.8646,0.8666,0.869,0.8723,0.8735,0.8765,0.8794,0.8837,0.8856,0.888,0.8882,0.8888,0.8889,0.889,0.889,0.8865,0.8886,0.8886,0.8886,0.8886,0.8886,0,0.8529,0.8548,0.8571,0.8603,0.8624,0.8633,0.866,0.8677,0.8702,0.8727,0.8751,0.8785,0.8814,0.8841,0.8872,0.8886,0.8892,0.8893,0.8892,0.8897,0.8886,0.888,0.8887,0.8887,0.8887,0.8887,0.8887,0.8887,0.8537,0.8563,0.8577,0.8614,0.8633,0.8662,0.8676,0.8697,0.8717,0.8754,0.8777,0.8795,0.8822,0.8855,0.8882,0.8889,0.89,0.8899,0.8908,0.8898,0.8897,0.8897,0.8891,0.8901,0.8901,0.8917,0.8917,0.8917]},{"header":{"parameterUnit":"m.s-1","parameterCategory":1,"la1":30.2991,"la2":30.254,"lo1":-89.0895,"lo2":-89.0444,"dy":0.0017,"dx":0.0017,"nx":28,"ny":28,"refTime":"2025-04-11T21:00:00:Z","depth":0,"parameterNumber":3,"parameterNumberName":"V-component_of_WINDS"},"data":[0,0,0,0,0,0,0,0,0,0,0,0,0,0,0,0,0,0,0,0,0,0,0,0,0,0,0,0,0,0,0,0,0,0,0,0,0,0,0,0,0,0,0,0,0,0,0,0,0,0,0,0,0,0,0,0,0,0,-2.5728,-2.5728,0,-2.5698,-2.5697,-2.5697,-2.5696,-2.5697,-2.5697,-2.5697,-2.5664,-2.5663,-2.5661,0,0,0,0,0,0,0,0,0,0,0,0,0,-2.5785,-2.5784,-2.5728,-2.5727,-2.5727,-2.5698,-2.5697,-2.5697,-2.5696,-2.5697,-2.5697,-2.5698,-2.5664,-2.5663,-2.5661,0,0,0,0,0,0,0,0,0,0,0,0,0,-2.5758,-2.5784,-2.5728,-2.5723,-2.5723,-2.5698,-2.5697,-2.5697,-2.5696,-2.5697,-2.5697,-2.5698,-2.5665,-2.5663,-2.5661,-2.5638,0,0,-2.5655,-2.5654,0,0,0,0,0,0,0,0,-2.576,-2.5756,-2.5724,-2.5724,-2.5723,-2.5701,-2.5705,-2.5677,-2.5696,-2.5706,-2.5697,-2.5698,-2.5676,-2.5673,-2.5666,-2.5636,-2.5635,-2.5655,-2.5654,-2.5653,-2.5653,0,0,0,0,0,0,0,-2.5761,-2.5757,-2.5716,-2.5724,-2.5723,-2.5723,-2.572,-2.57,-2.5688,-2.5705,-2.5705,-2.5702,-2.5675,-2.5668,-2.5665,-2.5634,-2.5655,-2.5653,-2.5652,-2.5652,-2.5588,-2.5587,0,0,0,0,0,0,-2.5764,-2.5759,-2.5717,-2.5715,-2.5743,-2.5721,-2.5718,-2.5708,-2.5688,-2.5686,-2.5701,-2.5702,-2.5671,-2.5667,-2.5664,-2.5638,-2.5653,-2.5651,-2.565,-2.5588,-2.5588,-2.5587,0,0,0,0,0,0,-2.5766,-2.5761,-2.5718,-2.5737,-2.5731,-2.572,-2.5708,-2.5707,-2.5699,-2.5685,-2.5683,-2.5696,-2.5671,-2.5667,-2.5645,-2.5636,-2.5651,-2.5649,-2.5589,-2.5588,-2.5587,-2.5583,0,0,0,0,0,0,-2.5767,-2.5761,-2.5752,-2.5737,-2.573,-2.57,-2.5708,-2.5706,-2.5696,-2.5697,-2.5679,-2.5677,-2.5671,-2.5648,-2.5643,-2.5634,-2.5647,-2.559,-2.5589,-2.5588,-2.5584,-2.5583,-2.5581,0,0,0,0,0,-2.5769,-2.5751,-2.5751,-2.5746,-2.5719,-2.5699,-2.5696,-2.569,-2.5695,-2.5686,-2.5678,-2.5678,-2.5638,-2.5646,-2.5641,-2.563,-2.559,-2.5589,-2.5588,-2.5585,-2.5583,-2.5581,0,0,0,0,0,0,-2.5763,-2.5748,-2.5749,-2.5725,-2.5714,-2.5699,-2.5687,-2.5687,-2.5673,-2.5674,-2.5667,-2.5663,-2.5643,-2.5634,-2.5643,-2.5609,-2.5615,-2.5613,-2.5615,-2.5613,-2.5611,-2.5613,-2.5646,0,0,0,0,0,-2.5759,-2.5745,-2.5733,-2.5713,-2.5707,-2.5699,-2.569,-2.5687,-2.5674,-2.5669,-2.5659,-2.5646,-2.5632,-2.5622,-2.5607,-2.5584,-2.5581,-2.5574,-2.5573,-2.5571,-2.5569,-2.5559,-2.5557,-2.5583,-2.5583,-2.5583,0,0,-2.575,-2.5741,-2.5731,-2.5711,-2.5702,-2.5688,-2.5694,-2.5678,-2.5668,-2.5666,-2.5646,-2.5639,-2.5625,-2.5603,-2.5593,-2.5595,-2.5562,-2.557,-2.5569,-2.5567,-2.5557,-2.5555,-2.5553,-2.5582,-2.5582,-2.5582,0,0,-2.5727,-2.5718,-2.5701,-2.5693,-2.568,-2.5675,-2.5671,-2.5658,-2.5653,-2.5634,-2.5633,-2.5621,-2.5595,-2.5586,-2.5577,-2.5555,-2.5555,-2.5551,-2.5542,-2.5532,-2.553,-2.5528,-2.5522,-2.5519,-2.5549,-2.5549,-2.5549,0,-2.5717,-2.5696,-2.5693,-2.5678,-2.567,-2.567,-2.5654,-2.5646,-2.5628,-2.5623,-2.5627,-2.5596,-2.5586,-2.5564,-2.5559,-2.5552,-2.5548,-2.5552,-2.5531,-2.5529,-2.5527,-2.5521,-2.5518,-2.5548,-2.5549,-2.5549,-2.5549,0,-2.5686,-2.5672,-2.566,-2.5646,-2.5636,-2.5621,-2.5615,-2.5606,-2.5605,-2.56,-2.5582,-2.5571,-2.5555,-2.555,-2.5547,-2.5528,-2.553,-2.5532,-2.5538,-2.5524,-2.5518,-2.5516,-2.5548,-2.5548,-2.5548,-2.5548,0,0,-2.5655,-2.5642,-2.5638,-2.5633,-2.562,-2.5609,-2.5595,-2.5581,-2.5574,-2.5563,-2.5551,-2.5531,-2.5535,-2.5526,-2.5523,-2.5514,-2.55,-2.5517,-2.5517,-2.5515,-2.548,-2.5478,-2.5475,-2.55,-2.5499,-2.5499,-2.5481,0,-2.5632,-2.5607,-2.5605,-2.5583,-2.5571,-2.5573,-2.5561,-2.5552,-2.5548,-2.5537,-2.5532,-2.5518,-2.5523,-2.5518,-2.5509,-2.5503,-2.5492,-2.5504,-2.5489,-2.5489,-2.5493,-2.5472,-2.547,-2.5454,-2.5479,-2.5478,-2.5478,0,-2.56,-2.5591,-2.5568,-2.556,-2.5555,-2.5544,-2.5533,-2.5523,-2.5514,-2.5512,-2.5504,-2.5503,-2.5489,-2.5496,-2.5478,-2.5486,-2.548,-2.5477,-2.5476,-2.5474,-2.5482,-2.547,-2.5448,-2.5446,-2.5474,-2.5474,-2.5475,0,-2.5582,-2.5563,-2.5548,-2.5543,-2.5534,-2.5526,-2.5522,-2.5514,-2.5507,-2.5497,-2.5493,-2.5482,-2.5475,-2.5467,-2.5463,-2.5469,-2.5446,-2.5452,-2.5444,-2.5444,-2.5438,-2.5439,-2.5415,-2.5434,-2.5434,-2.5434,-2.5434,0,-2.5556,-2.5542,-2.554,-2.5531,-2.5516,-2.5515,-2.55,-2.5496,-2.549,-2.548,-2.5481,-2.5471,-2.5468,-2.5458,-2.5455,-2.5442,-2.5438,-2.5437,-2.5436,-2.5437,-2.5437,-2.5432,-2.5433,-2.5433,-2.5434,-2.5434,-2.5434,0,-2.5533,-2.5531,-2.5515,-2.5508,-2.5506,-2.5496,-2.549,-2.5482,-2.5479,-2.5467,-2.5464,-2.5459,-2.5448,-2.5445,-2.543,-2.5429,-2.5414,-2.5414,-2.5417,-2.5417,-2.5409,-2.541,-2.5382,-2.5379,-2.5399,-2.5399,-2.5399,0,-2.5517,-2.5507,-2.55,-2.5494,-2.549,-2.548,-2.5475,-2.5474,-2.5467,-2.5459,-2.5451,-2.5441,-2.5433,-2.5415,-2.5411,-2.5401,-2.5401,-2.5392,-2.5399,-2.5401,-2.5402,-2.5403,-2.5403,-2.539,-2.539,-2.539,-2.539,0,-2.5488,-2.5489,-2.548,-2.5473,-2.5466,-2.5459,-2.5453,-2.5448,-2.5447,-2.544,-2.5429,-2.5423,-2.5411,-2.5401,-2.5392,-2.5387,-2.5389,-2.5388,-2.5386,-2.5386,-2.5389,-2.5388,-2.5414,-2.5388,-2.5388,-2.5388,-2.5388,-2.5389,-2.5469,-2.5461,-2.5456,-2.5448,-2.5443,-2.5438,-2.5431,-2.5428,-2.542,-2.5411,-2.5411,-2.5401,-2.5395,-2.5383,-2.5378,-2.537,-2.5373,-2.5369,-2.5368,-2.5367,-2.5367,-2.539,-2.5368,-2.5368,-2.5368,-2.5368,-2.5369,0,-2.5442,-2.544,-2.5432,-2.5424,-2.5418,-2.5422,-2.5416,-2.541,-2.5401,-2.5396,-2.5389,-2.5379,-2.537,-2.5366,-2.5358,-2.5353,-2.5353,-2.535,-2.5351,-2.535,-2.5365,-2.5368,-2.535,-2.535,-2.535,-2.535,-2.535,-2.535,-2.5427,-2.5415,-2.5415,-2.5402,-2.5399,-2.539,-2.5387,-2.5383,-2.5379,-2.5368,-2.5362,-2.536,-2.5355,-2.5347,-2.534,-2.5339,-2.5336,-2.5334,-2.5333,-2.5347,-2.5349,-2.535,-2.5354,-2.5333,-2.5333,-2.5319,-2.5319,-2.5319]}]]